Regional Weather Roundup
Issued by NWS Northern Indiana

Home | Current Version | Previous Version | Graphics & Text | Print | Product List | Glossary On
Versions: 1 2 3 4 5 6 7 8 9 10 11 12 13 14 15 16 17 18 19 20 21 22 23 24 25 26 27 28 29 30 31 32 33 34 35 36 37 38 39 40 41 42 43 44 45 46 47 48 49 50
000
ASUS43 KIWX 202100
RWRIWX

KIWX WEATHER ROUNDUP
NATIONAL WEATHER SERVICE NORTHERN INDIANA
400 PM EST MON NOV 20 2017

NOTE: "FAIR" INDICATES FEW OR NO CLOUDS BELOW 12,000 FEET WITH NO
SIGNIFICANT WEATHER AND/OR OBSTRUCTIONS TO VISIBILITY.

* THESE STATIONS ARE NOT UNDER NWS QUALITY CONTROL. THEY ALSO MAY NOT
  REPORT WEATHER SUCH AS PRECIPITATION OR FOG.

INZ001>027-202200-
NORTHERN INDIANA

CITY           SKY/WX    TMP DP  RH WIND       PRES   REMARKS
LAPORTE*       SUNNY     50  33  52 SW20G28   29.85F
KNOX*          SUNNY     50  32  50 SW18G25   29.87S
SOUTH BEND     SUNNY     50  31  48 SW14G25   29.86S
ELKHART*       SUNNY     50  30  46 MISG      29.85F
GOSHEN         SUNNY     49  28  44 S22G31    29.86F
MONTICELLO*    SUNNY     50  29  45 SW18      29.91F
WARSAW*        SUNNY     50  30  46 S10G21    29.89F
AUBURN*        SUNNY     48  27  43 S14G24    29.92F
FORT WAYNE     MOSUNNY   48  31  51 S14       29.95S
PERU/GRISSOM   SUNNY     49  31  49 S15G25    29.93F

$$
INZ028>050-202200-
CENTRAL INDIANA

CITY           SKY/WX    TMP DP  RH WIND       PRES   REMARKS
LAFAYETTE      SUNNY     50  30  46 SW13G21   29.93F
KOKOMO*        SUNNY     49  29  46 S18G26    29.96F
MUNCIE*        SUNNY     47  26  44 SW15G25   29.99F
INDIANAPOLIS   CLOUDY    49  25  39 S16       29.99F

$$
MIZ043>046-050>051-056>058-064>065-071>073-077>080-202200-
SOUTHWEST LOWER MICHIGAN

CITY           SKY/WX    TMP DP  RH WIND       PRES   REMARKS
BATTLE CREEK   SUNNY     49  30  48 SW15      29.83F
BENTON HARBOR  SUNNY     52  29  41 S14G23    29.81F
COLDWATER*     SUNNY     50  26  39 SW14G24   29.85F
HILLSDALE*     SUNNY     46  28  49 S15G21    29.86F
HOLLAND        SUNNY     49  30  48 SW20G37   29.77F
GRAND RAPIDS   PTSUNNY   48  31  51 S17       29.77F
KALAMAZOO      SUNNY     51  27  39 SW16G25   29.83F
STURGIS*       SUNNY     49  31  51 SW17G28   29.85F
THREE RIVERS*  FAIR      51  31  47 SW14G23   29.85S

$$
OHZ001>008-015>018-024>025-202200-
NORTHWEST OHIO

CITY           SKY/WX    TMP DP  RH WIND       PRES   REMARKS
DEFIANCE       SUNNY     47  29  49 S16       29.94S
FINDLAY        SUNNY     46  29  51 S21       29.97F
TOLEDO EXPRESS SUNNY     47  29  49 SW17G29   29.93F
TOLEDO METCALF SUNNY     47  29  49 S17       29.95F

$$
AND FOR LAKE MICHIGAN COASTAL AND OPEN LAKE BUOY OBSERVATIONS

STATION/POSITION TEMP    WIND        PRES    VSBY  WAVE
                 AIR SEA DIR/SP/G                  HT/PER
                 (F)     (DEG/KT/KT) (MB)    (MI)  (FT/S)
CALUMET HARBOR    52     190/ 16/ 24 1008.4F
MICHIGAN CITY     51     190/ 20/ 25   N/A
BURNS HARBOR      52     200/ 22/ 29 1010.2F
SAINT JOSEPH      49     210/ 16/ 20 1009.8
SOUTH LAKE BUOY   47 49  200/ 23/ 27 1007.8          5/ 6

$$
&&



USA.gov is the U.S. government's official web portal to all federal, state and local government web resources and services.